Location: *
(46.0770°N, 1.6444°E)
Time: 11:01:09
(UTC+00:00)

Cosmos 405 Rocket - Pass Details

Date: 16 September 2019
Orbit: 491 x 554 km, 81.3° (Epoch: 14 October)

Event Time Altitude Azimuth Distance (km) Brightness Sun altitude
Exits shadow 19:54:18 40° 55° (NE) 746 3.2 -19.3°
Drops below altitude 10° 19:57:03 10° 22° (NNE) 1,697 5.4 -19.7°
Sets 19:59:13 0° 16° (NNE) 2,589 6.4 -20.1°
